OAL892 LXGB-EGLC

Flight info

Callsign OAL892
Flight time N/A
Altitude 43000
Route BRIKE DCT HIJ Z230 TLD N858 SIE N865 BUGIX DCT NENEM DCT YURZI UL14 TEPRA UN867 RINSO UM184 DIKRO/N0481F240 UZ273 ANGLO/N0482F250 UZ273 NEVIL
Aircraft C750/M-SBDE3FGHRWXY/S

Departure

Time 2026-05-01 11:28
Airport Gibraltar Airport (LXGB)

Arrival

Time N/A
Airport London City Airport (EGLC)
Time Latitude Longitude Altitude Speed Heading
2026-05-01 11:02 36.15335 -5.34346 14 ft 0 kts 71°
2026-05-01 11:25 36.15290 -5.34342 12 ft 5 kts 189°
2026-05-01 11:25 36.15247 -5.34348 11 ft 7 kts 168°
2026-05-01 11:26 36.15238 -5.34310 11 ft 4 kts 88°
2026-05-01 11:26 36.15221 -5.34234 12 ft 6 kts 163°
2026-05-01 11:26 36.15170 -5.34232 12 ft 7 kts 194°
2026-05-01 11:27 36.15147 -5.34274 12 ft 6 kts 261°
2026-05-01 11:27 36.15146 -5.34282 12 ft 0 kts 263°
2026-05-01 11:27 36.15136 -5.34473 13 ft 70 kts 268°
2026-05-01 11:27 36.15099 -5.35491 95 ft 145 kts 264°
2026-05-01 11:28 36.15083 -5.36719 815 ft 142 kts 270°
2026-05-01 11:28 36.15404 -5.37879 1512 ft 148 kts 304°
2026-05-01 11:28 36.16293 -5.38627 2117 ft 167 kts 346°
2026-05-01 11:29 36.18682 -5.37538 3274 ft 205 kts 31°
2026-05-01 11:29 36.20016 -5.36786 4013 ft 219 kts 19°
2026-05-01 11:29 36.23347 -5.36395 4937 ft 266 kts
2026-05-01 11:30 36.25258 -5.36226 5653 ft 280 kts
2026-05-01 11:30 36.27198 -5.36488 6685 ft 282 kts 349°
2026-05-01 11:30 36.29125 -5.37028 7631 ft 286 kts 346°
2026-05-01 11:30 36.31085 -5.37544 8640 ft 290 kts 349°
2026-05-01 11:31 36.33092 -5.37942 9700 ft 294 kts 350°
2026-05-01 11:31 36.35138 -5.38339 10468 ft 304 kts 349°
2026-05-01 11:31 36.37312 -5.38814 10692 ft 331 kts 348°
2026-05-01 11:31 36.39675 -5.39341 10790 ft 358 kts 348°
2026-05-01 11:32 36.42156 -5.39865 11488 ft 361 kts 349°
2026-05-01 11:32 36.44641 -5.40384 12251 ft 363 kts 348°
2026-05-01 11:32 36.47142 -5.40922 12980 ft 367 kts 348°
2026-05-01 11:32 36.49639 -5.41450 13689 ft 370 kts 349°
2026-05-01 11:33 36.52234 -5.41403 14229 ft 378 kts
2026-05-01 11:33 36.54848 -5.40953 14883 ft 380 kts
2026-05-01 11:33 36.57474 -5.40540 15509 ft 382 kts
2026-05-01 11:33 36.60124 -5.40157 16174 ft 385 kts
2026-05-01 11:34 36.62796 -5.39752 16839 ft 388 kts
2026-05-01 11:34 36.65489 -5.39324 17513 ft 392 kts
2026-05-01 11:34 36.68202 -5.38898 18204 ft 395 kts
2026-05-01 11:34 36.70943 -5.38480 18832 ft 398 kts
2026-05-01 11:35 36.73711 -5.38055 19491 ft 401 kts
2026-05-01 11:35 36.76485 -5.37623 20145 ft 404 kts
2026-05-01 11:35 36.79288 -5.37187 20764 ft 408 kts
2026-05-01 11:35 36.82120 -5.36749 21416 ft 411 kts
2026-05-01 11:36 36.84966 -5.36308 22074 ft 414 kts
2026-05-01 11:36 36.87841 -5.35862 22733 ft 418 kts
2026-05-01 11:36 36.90738 -5.35411 23349 ft 422 kts
2026-05-01 11:36 36.93670 -5.34955 23935 ft 426 kts
2026-05-01 11:37 36.96613 -5.34496 24482 ft 428 kts
2026-05-01 11:37 36.99574 -5.34034 25042 ft 430 kts
2026-05-01 11:37 37.02519 -5.33575 25597 ft 432 kts
2026-05-01 11:37 37.05504 -5.33111 26157 ft 434 kts
2026-05-01 11:38 37.08496 -5.32642 26821 ft 433 kts
2026-05-01 11:38 37.11491 -5.32173 27381 ft 435 kts
2026-05-01 11:38 37.14511 -5.31702 27918 ft 437 kts
2026-05-01 11:38 37.17539 -5.31228 28470 ft 439 kts
2026-05-01 11:39 37.20578 -5.30751 28996 ft 442 kts
2026-05-01 11:39 37.22600 -5.30434 29344 ft 443 kts
2026-05-01 11:39 37.25668 -5.29953 29871 ft 445 kts
2026-05-01 11:39 37.28748 -5.29470 30347 ft 448 kts
2026-05-01 11:40 37.31852 -5.28982 30745 ft 450 kts
2026-05-01 11:40 37.34970 -5.28492 31127 ft 454 kts
2026-05-01 11:40 37.38128 -5.27994 31505 ft 458 kts 360°
2026-05-01 11:40 37.41299 -5.27495 31859 ft 461 kts 360°
2026-05-01 11:41 37.44493 -5.26991 32233 ft 464 kts 359°
2026-05-01 11:41 37.47717 -5.26482 32594 ft 467 kts 359°
2026-05-01 11:41 37.50950 -5.25972 32969 ft 470 kts 359°
2026-05-01 11:41 37.54169 -5.25463 33330 ft 474 kts 359°
2026-05-01 11:42 37.57491 -5.24937 33689 ft 477 kts 359°
2026-05-01 11:42 37.60751 -5.24421 34056 ft 480 kts 359°
2026-05-01 11:42 37.64105 -5.23889 34503 ft 479 kts 359°
2026-05-01 11:42 37.67410 -5.23361 34990 ft 478 kts 359°
2026-05-01 11:43 37.70667 -5.22844 35451 ft 477 kts 359°
2026-05-01 11:43 37.73962 -5.22323 35925 ft 477 kts 359°
2026-05-01 11:43 37.77291 -5.21793 36424 ft 476 kts 359°
2026-05-01 11:44 37.83813 -5.20752 37419 ft 474 kts 359°
2026-05-01 11:44 37.87087 -5.20231 37877 ft 475 kts
2026-05-01 11:44 37.90376 -5.19708 38293 ft 476 kts
2026-05-01 11:44 37.93705 -5.19175 38789 ft 476 kts
2026-05-01 11:45 37.96947 -5.18654 39182 ft 476 kts
2026-05-01 11:45 38.00278 -5.18121 39528 ft 477 kts
2026-05-01 11:45 38.03569 -5.17596 39885 ft 477 kts
2026-05-01 11:45 38.06826 -5.17073 40224 ft 478 kts
2026-05-01 11:46 38.10133 -5.16542 40562 ft 480 kts
2026-05-01 11:46 38.13441 -5.15925 40834 ft 486 kts
2026-05-01 11:46 38.16738 -5.14867 41191 ft 488 kts
2026-05-01 11:46 38.20011 -5.13722 41568 ft 489 kts 11°
2026-05-01 11:47 38.23285 -5.12509 41931 ft 490 kts 11°
2026-05-01 11:47 38.26559 -5.11310 42289 ft 490 kts 11°
2026-05-01 11:47 38.29844 -5.10151 42648 ft 490 kts 11°
2026-05-01 11:47 38.33136 -5.08987 43003 ft 488 kts 11°
2026-05-01 11:48 38.36418 -5.07797 43122 ft 493 kts 11°
2026-05-01 11:48 38.39742 -5.06590 43123 ft 501 kts 11°
2026-05-01 11:48 38.46554 -5.04144 43138 ft 513 kts 11°
2026-05-01 11:49 38.53452 -5.01643 43144 ft 515 kts 12°
2026-05-01 11:49 38.60335 -4.99156 43130 ft 513 kts 12°
2026-05-01 11:50 38.67192 -4.96666 43126 ft 513 kts 12°
2026-05-01 11:50 38.74074 -4.94166 43138 ft 516 kts 12°
2026-05-01 11:51 38.80949 -4.91659 43134 ft 517 kts 12°
2026-05-01 11:51 38.87854 -4.89140 43137 ft 515 kts 12°
2026-05-01 11:52 38.94751 -4.86619 43137 ft 515 kts 12°
2026-05-01 11:52 39.01612 -4.83904 43141 ft 518 kts 17°
2026-05-01 11:53 39.08317 -4.80363 43147 ft 521 kts 19°
2026-05-01 11:53 39.15046 -4.76898 43143 ft 520 kts 18°
2026-05-01 11:54 39.21753 -4.73396 43138 ft 520 kts 19°
2026-05-01 11:54 39.28471 -4.69893 43151 ft 521 kts 18°
2026-05-01 11:55 39.35185 -4.66387 43153 ft 521 kts 19°
2026-05-01 11:55 39.41905 -4.62862 43153 ft 520 kts 19°
2026-05-01 11:56 39.48617 -4.59345 43149 ft 520 kts 19°
2026-05-01 11:56 39.55337 -4.55807 43144 ft 521 kts 19°
2026-05-01 11:57 39.62016 -4.52289 43144 ft 520 kts 19°
2026-05-01 11:57 39.68724 -4.48746 43146 ft 521 kts 19°
2026-05-01 11:58 39.75437 -4.45193 43145 ft 522 kts 19°
2026-05-01 11:59 39.85509 -4.39843 43142 ft 521 kts 19°
2026-05-01 11:59 39.92217 -4.36266 43143 ft 521 kts 19°
2026-05-01 12:00 40.02195 -4.30555 43154 ft 523 kts 23°
2026-05-01 12:01 40.12103 -4.24513 43147 ft 523 kts 22°
2026-05-01 12:01 40.18692 -4.20474 43158 ft 522 kts 23°
2026-05-01 12:02 40.25281 -4.16442 43160 ft 523 kts 22°
2026-05-01 12:02 40.31833 -4.12416 43166 ft 523 kts 23°
2026-05-01 12:03 40.38421 -4.08362 43166 ft 523 kts 22°
2026-05-01 12:03 40.45020 -4.04292 43170 ft 524 kts 23°
2026-05-01 12:04 40.51623 -4.00211 43186 ft 524 kts 23°
2026-05-01 12:04 40.58217 -3.96127 43197 ft 523 kts 23°
2026-05-01 12:05 40.64803 -3.92038 43212 ft 524 kts 23°
2026-05-01 12:05 40.74699 -3.85876 43212 ft 524 kts 23°
2026-05-01 12:06 40.81244 -3.81792 43174 ft 523 kts 23°
2026-05-01 12:06 40.87827 -3.77673 43178 ft 523 kts 23°
2026-05-01 12:07 40.94413 -3.73544 43172 ft 524 kts 23°
2026-05-01 12:07 41.00987 -3.69412 43170 ft 523 kts 23°
2026-05-01 12:08 41.07574 -3.65266 43182 ft 524 kts 23°
2026-05-01 12:08 41.14267 -3.61506 43149 ft 521 kts 14°
2026-05-01 12:09 41.21375 -3.60195 43150 ft 514 kts 358°
2026-05-01 12:09 41.28528 -3.60753 43162 ft 514 kts 352°
2026-05-01 12:10 41.39238 -3.60987 43147 ft 516 kts 358°
2026-05-01 12:11 41.49988 -3.61411 43142 ft 515 kts 357°
2026-05-01 12:11 41.57178 -3.61314 43136 ft 517 kts 357°
2026-05-01 12:12 41.64371 -3.61390 43135 ft 516 kts 357°
2026-05-01 12:12 41.71559 -3.61341 43134 ft 516 kts 358°
2026-05-01 12:13 41.78750 -3.61371 43134 ft 517 kts 357°
2026-05-01 12:13 41.85954 -3.61354 43135 ft 519 kts 358°
2026-05-01 12:14 41.93183 -3.61361 43152 ft 519 kts 357°
2026-05-01 12:14 42.00422 -3.61358 43134 ft 519 kts 358°
2026-05-01 12:15 42.07617 -3.61701 43135 ft 518 kts 354°
2026-05-01 12:15 42.14775 -3.62178 43151 ft 519 kts 355°
2026-05-01 12:16 42.21993 -3.62627 43180 ft 519 kts 354°
2026-05-01 12:16 42.29203 -3.63105 43187 ft 518 kts 355°
2026-05-01 12:17 42.36420 -3.63270 43174 ft 521 kts
2026-05-01 12:17 42.43572 -3.61413 43187 ft 524 kts 12°
2026-05-01 12:18 42.50712 -3.59315 43182 ft 524 kts
2026-05-01 12:18 42.57871 -3.57410 43160 ft 525 kts 10°
2026-05-01 12:19 42.65014 -3.55318 43146 ft 524 kts
2026-05-01 12:19 42.72156 -3.53374 43136 ft 524 kts 10°
2026-05-01 12:20 42.79306 -3.51309 43138 ft 525 kts
2026-05-01 12:20 42.86457 -3.49321 43135 ft 525 kts
2026-05-01 12:21 42.93552 -3.47288 43132 ft 524 kts
2026-05-01 12:21 43.00699 -3.45271 43136 ft 525 kts
2026-05-01 12:22 43.06695 -3.43558 43133 ft 525 kts
2026-05-01 12:22 43.13832 -3.41522 43128 ft 523 kts
2026-05-01 12:23 43.20901 -3.39500 43131 ft 522 kts 10°
2026-05-01 12:23 43.28026 -3.37457 43135 ft 523 kts 10°
2026-05-01 12:24 43.35148 -3.35411 43134 ft 523 kts 10°
2026-05-01 12:24 43.42276 -3.33356 43132 ft 523 kts 10°
2026-05-01 12:25 43.52971 -3.30266 43135 ft 523 kts 10°
2026-05-01 12:26 43.60101 -3.28200 43137 ft 524 kts 10°
2026-05-01 12:26 43.70801 -3.25088 43142 ft 523 kts 10°
2026-05-01 12:27 43.81440 -3.21985 43146 ft 524 kts 10°
2026-05-01 12:28 43.92141 -3.18851 43161 ft 523 kts 10°
2026-05-01 12:29 44.02829 -3.15710 43164 ft 524 kts 10°
2026-05-01 12:29 44.13522 -3.12457 43171 ft 523 kts 11°
2026-05-01 12:30 44.24196 -3.09192 43181 ft 524 kts 11°
2026-05-01 12:31 44.31317 -3.06981 43184 ft 524 kts 11°
2026-05-01 12:31 44.38437 -3.04791 43181 ft 523 kts 11°
2026-05-01 12:32 44.45531 -3.02587 43186 ft 521 kts 11°
2026-05-01 12:32 44.56170 -2.99285 43188 ft 522 kts 11°
2026-05-01 12:33 44.63223 -2.97086 43189 ft 522 kts 11°
2026-05-01 12:33 44.70316 -2.94870 43189 ft 522 kts 11°
2026-05-01 12:34 44.77425 -2.92642 43188 ft 522 kts 11°
2026-05-01 12:34 44.84514 -2.90416 43195 ft 522 kts 11°
2026-05-01 12:35 44.91614 -2.88181 43196 ft 522 kts 11°
2026-05-01 12:35 44.97561 -2.86305 43199 ft 523 kts 11°
2026-05-01 12:36 44.98713 -2.85941 43197 ft 523 kts 11°
2026-05-01 12:36 45.01059 -2.85199 43202 ft 523 kts 11°